Location: Derby
(52.9213°N, 1.4761°W)
Time: 01:20:45
(UTC+01:00)

A-11 Canister half - Pass Details

Date: 20 May 2025
Orbit: 1524 x 1684 km, 47.3° (Epoch: 12 June)

Event Time Altitude Azimuth Distance (km) Brightness Sun altitude
Rises 21:50:35 0° 252° (WSW) 4,718 12.0 -6.0°
Reaches altitude 10° 21:53:38 10° 250° (WSW) 3,753 11.4 -6.3°
Maximum altitude 22:02:58 63° 172° (S) 1,763 9.1 -7.2°
Drops below altitude 10° 22:12:39 10° 95° (E) 3,881 10.7 -8.2°
Sets 22:15:51 0° 93° (E) 4,887 11.2 -8.5°
